Location: Zürich
(47.3769°N, 8.5417°E)
Time: 11:29:21
(UTC+02:00)

ISS - Pass Details

Date: 20 May 2021
Orbit: 417 x 422 km, 51.6° (Epoch: 13 June)

Event Time Altitude Azimuth Distance (km) Brightness Sun altitude
Rises 01:18:48 0° 293° (WNW) 2,369 0.4 -22.6°
Reaches altitude 10° 01:20:55 10° 297° (WNW) 1,504 -0.6 -22.6°
Enters shadow 01:23:17 41° 313° (NW) 626 -2.7 -22.6°
